Flag for United Kingdom Weather past 2 weeks in Southampton, England, United Kingdom

Now
43 °F

Passing clouds.


Feels Like: 43 °F
Forecast: 32 / 52 °F
Wind: No wind

Location: Southampton / Weather Centre

Current Time: Mar 5, 2015 at 10:44:48 AM

Latest Report: Mar 5, 2015 at 10:20 AM


Visibility: N/A

Pressure: 30.72 "Hg

Humidity: 76%

Dew point: 36 °F

Location of SouthamptonLocation

Historic Weather in Southampton — Graph

°F

Southampton temperature yesterday

Maximum temperature yesterday: 48 °F (at 12:50 PM)
Minimum temperature yesterday: 34 °F (at 5:50 AM)
Average temperature yesterday: 43 °F

Past Weeks' High & Low Weather Summary

 TemperatureHumidityPressure
High55 °F (Feb 25, 3:20 PM)100% (Feb 18, 9:20 AM)30.74 "Hg (Feb 18, 9:20 AM)
Low23 °F (Feb 22, 6:50 AM)46% (Mar 2, 11:50 AM)29.30 "Hg (Feb 22, 10:20 PM)
Average43 °F76%29.90 "Hg
* Reported Feb 18 9:20 AM — Mar 5 9:50 AM, Southampton, Weather by CustomWeather, © 2015

Note: Actual official high and low records may vary slightly from our data, if they occured in-between our weather recording intervals... More about our weather records

Advertising

Southampton weather history for previous 24 hours

 ConditionsComfort  
Time TempWeatherWind HumidityBarometerVisibility
9:50 AM
Thu, Mar 5
41 °FSunny.No wind81%30.72 "Hg10 mi
9:20 AM37 °FSunny.No wind87%30.74 "Hg10 mi
8:50 AM34 °FSunny.No wind93%30.74 "Hg10 mi
8:20 AM30 °FSunny.1 mph93%30.74 "Hg10 mi
7:50 AM28 °FSunny.No wind93%30.72 "Hg10 mi
7:20 AM27 °FSunny.1 mph93%30.72 "Hg10 mi
6:50 AM25 °FPassing clouds.No wind100%30.72 "HgN/A
6:20 AM25 °FLight fog.No wind100%30.72 "HgN/A
5:50 AM27 °FPassing clouds.No wind93%30.72 "HgN/A
9:50 PM
Wed, Mar 4
39 °FClear.3 mph65%30.66 "Hg10 mi
9:20 PM39 °FClear.2 mph65%30.66 "Hg10 mi
8:50 PM41 °FClear.1 mph61%30.66 "Hg10 mi
8:20 PM43 °FPassing clouds.5 mph57%30.63 "HgN/A
7:50 PM43 °FClear.3 mph57%30.63 "Hg10 mi
7:20 PM43 °FClear.3 mph57%30.63 "Hg10 mi
6:50 PM45 °FClear.3 mph53%30.60 "Hg10 mi
6:20 PM45 °FClear.2 mph53%30.60 "Hg10 mi
5:50 PM46 °FPassing clouds.8 mph50%30.57 "HgN/A
5:20 PM46 °FPassing clouds.9 mph53%30.57 "HgN/A
4:50 PM48 °FPassing clouds.13 mph50%30.54 "HgN/A
4:20 PM48 °FPassing clouds.14 mph46%30.54 "HgN/A
3:50 PM48 °FPassing clouds.12 mph50%30.51 "HgN/A
3:20 PM48 °FScattered clouds.13 mph50%30.51 "HgN/A
2:50 PM48 °FScattered clouds.15 mph50%30.48 "HgN/A
2:20 PM48 °FScattered clouds.15 mph50%30.48 "HgN/A
1:50 PM48 °FScattered clouds.15 mph50%30.48 "HgN/A
1:20 PM48 °FScattered clouds.15 mph46%30.48 "HgN/A
12:50 PM48 °FScattered clouds.15 mph50%30.45 "HgN/A
12:20 PM46 °FPassing clouds.14 mph53%30.45 "HgN/A
11:50 AM46 °FPassing clouds.15 mph57%30.45 "HgN/A
11:20 AM45 °FPassing clouds.14 mph61%30.45 "HgN/A
10:50 AM45 °FPassing clouds.17 mph61%30.42 "HgN/A
10:20 AM43 °FPassing clouds.15 mph61%30.42 "HgN/A
Weather by CustomWeather, © 2015

See weather overviewHow to use our weather pages